COSMOS 2492 [GLONASS-M] 
1 39620U 14012A   19257.82169022 -.00000048  00000-0  10000-3 0  9999
2 39620  65.6673  36.9061 0011567 330.4043 277.4382  2.13103317 42658
FREGAT R/B              
1 39621U 14012B   19256.31267144 -.00000050  00000-0  00000+0 0  9995
2 39621  65.6444  39.6787 0071118 114.9814 245.7591  2.08924579 41765